Powrót do katalogu

STARLINK-37398

AktywnyŁącznośćVLEO
NORAD 69249·PAYLOAD·🇺🇸 United States

Wystrzelony May 29, 2026 z Cape Canaveral Space Force Station

Loading…

Następne Przeloty (najbliższe 24 godziny)

TLE

ŚwieżeSource: CelesTrak SupGP

Epoka: Sep 15, 2026, 03:49 UTC

1 69249C 26117M   26258.15951389 -.00007681  00000+0 -22688-3 0  2581
2 69249  53.1574 178.5580 0001224  94.5473 110.1530 15.34404146    16

Śledź STARLINK-37398 w czasie rzeczywistym z AllMySat

Download on the App Store